Temperature
20 19 19 19 18 18 18 17 17 17 16 16 16 15 15 15 15 15 15 15 15 14 14 14 14 14 14 14 14 14 14 14 14 14 14 14 14 14 14 14 14 14 14
20 19 19 18 18 18 18 18 17 17 16 16 16 15 15 15 15 15 14 14 14 14 14 14 14 14 14 14 14 14 13 13 13 14 14 14 14 14 14 14 14 14 13
20 20 19 18 18 18 18 18 17 17 16 16 16 15 15 15 15 14 14 14 14 14 14 14 14 14 14 14 13 13 13 13 13 13 14 14 14 14 14 14 14 14 13
20 20 19 19 18 18 18 17 17 17 16 16 16 15 15 15 15 14 14 14 14 14 14 14 14 14 13 13 13 13 13 13 13 13 13 13 13 13 13 13 13 13 13
20 20 19 18 18 18 17 17 17 17 16 16 16 15 15 15 15 14 14 14 14 14 14 14 14 13 13 13 13 13 13 13 13 13 13 13 13 13 13 13 13 13 13
20 20 19 18 18 18 17 17 17 16 16 16 15 15 15 15 14 14 14 14 14 14 14 14 14 13 13 13 13 13 13 13 13 13 13 13 13 13 13 13 13 13 13
20 19 19 18 18 17 17 16 16 16 16 16 15 15 15 14 14 14 14 14 14 14 14 14 14 13 13 13 13 13 13 13 13 13 13 13 13 13 13 13 13 12 12
19 19 18 18 17 17 17 16 16 16 16 15 15 15 15 14 14 14 14 14 14 14 14 13 13 13 13 13 13 13 13 13 13 13 13 13 13 12 13 13 12 12 12
19 18 18 17 17 17 16 16 16 15 15 15 15 15 14 14 14 14 14 14 13 13 13 13 13 13 13 13 13 13 13 12 12 12 13 12 12 12 12 12 12 12 12
18 18 17 17 17 16 16 16 15 15 15 15 15 14 14 14 14 14 14 13 13 13 13 13 13 13 13 13 12 12 12 12 12 12 12 12 12 12 12 12 12 12 12
18 17 17 16 16 16 16 15 15 15 15 15 14 14 14 14 14 14 13 13 13 13 13 13 13 13 12 12 12 12 12 12 12 12 12 12 12 12 12 12 12 12 11
18 17 16 16 16 15 15 15 15 15 14 14 14 14 14 14 13 13 13 13 13 13 13 12 12 12 12 12 12 12 12 12 12 12 12 12 12 12 11 11 11 11 11
17 17 16 16 15 15 15 15 15 14 14 14 14 14 14 13 13 13 13 13 12 12 12 12 12 12 12 12 12 12 12 12 11 11 11 11 11 11 11 11 11 11 11
17 17 16 15 15 15 14 14 14 14 14 14 13 13 13 13 13 13 13 12 12 12 12 12 12 12 12 12 12 11 11 11 11 11 11 11 11 11 11 11 11 11 11
17 16 16 15 15 14 14 14 14 14 14 13 13 13 13 13 13 12 12 12 12 12 12 11 12 11 11 11 11 11 11 11 11 11 11 11 11 11 11 11 11 10 10
16 16 16 15 15 14 14 14 14 13 13 13 13 13 12 12 12 12 12 12 12 11 11 11 11 11 11 11 11 11 11 11 11 10 10 10 10 10 10 10 10 10 10
16 16 15 15 14 14 14 14 13 13 13 13 12 12 12 12 12 12 11 11 11 11 11 11 11 11 11 11 11 11 10 10 10 10 10 10 10 10 10 10 10 10 10
16 15 15 15 14 14 14 13 13 13 12 12 12 12 12 12 11 11 11 11 11 10 10 10 10 10 10 10 10 10 10 10 10 10 10 10 10 10 10 10 9 9 9
15 15 15 14 14 14 13 13 12 12 12 12 12 12 11 11 11 11 11 10 10 10 10 10 10 10 10 10 10 10 10 10 9 9 9 9 9 9 9 9 9 9 9
14 14 14 14 14 13 13 13 12 12 12 12 12 11 11 11 11 10 10 10 10 10 10 9 9 9 10 10 9 9 9 9 9 9 9 9 9 9 9 9 9 9 9
14 14 13 13 13 13 13 12 12 12 12 11 11 11 11 10 10 10 10 9 9 9 9 9 9 9 9 9 9 9 9 9 8 8 8 8 8 8 8 8 8 8 8
13 13 13 13 12 12 12 12 12 11 11 11 11 11 10 10 10 10 9 9 9 9 9 9 9 8 9 9 8 8 8 8 8 8 8 8 8 8 8 8 8 8 7
12 12 12 12 12 12 11 11 11 11 11 10 10 10 10 10 9 9 9 9 9 9 8 8 8 8 8 8 8 8 8 8 8 8 7 7 7 7 7 7 7 7 7
12 12 11 11 11 11 11 11 11 11 10 10 10 9 9 9 9 9 9 8 8 8 8 8 8 8 8 8 8 7 7 7 7 7 7 7 7 7 7 6 6 6 6
12 11 11 11 11 11 11 10 10 10 10 10 9 9 9 8 8 8 8 8 8 8 8 8 7 7 7 7 7 7 7 7 7 7 6 6 6 6 6 6 6 6 5
11 11 11 11 11 10 10 10 10 9 9 9 9 8 8 8 8 8 8 7 7 7 7 7 7 7 7 7 7 7 6 6 6 6 6 6 6 5 5 5 5 5 5
Wind_Speed
8 8 7 6 6 5 5 6 6 5 5 3 2 2 2 2 2 2 3 3 4 5 4 2 3 3 2 2 2 2 3 2 2 2 2 2 2 2 2 2 3 3 4
9 8 7 6 6 6 5 5 6 5 5 4 3 3 3 2 2 2 2 3 3 3 2 2 2 2 2 2 3 3 2 2 2 1 1 1 2 3 1 2 1 2 2
8 8 8 7 6 6 5 5 5 5 6 6 4 3 2 2 2 2 1 1 1 2 2 1 2 1 1 1 1 2 2 1 2 2 1 1 0 2 2 0 1 1 1
8 8 8 8 7 5 5 5 5 5 6 7 5 4 3 2 2 2 2 1 0 1 1 1 1 1 1 1 0 2 1 0 1 2 1 0 1 1 1 2 1 1 1
7 8 7 7 7 6 5 4 5 4 5 6 6 5 3 3 2 3 3 2 2 1 1 0 0 1 1 1 0 1 0 0 0 1 1 1 1 1 1 1 2 2 0
6 6 7 6 6 6 6 5 5 4 4 6 6 5 4 3 3 3 3 2 1 1 2 1 1 1 1 1 1 1 0 1 1 1 1 0 1 2 1 0 1 1 1
6 6 6 7 6 6 6 6 5 5 4 5 5 5 4 4 4 3 3 3 2 2 2 2 2 1 1 1 1 1 1 1 1 1 1 1 1 1 1 1 1 1 1
5 5 5 7 6 6 6 6 5 5 5 5 5 5 4 3 2 3 2 2 2 3 3 3 2 2 2 1 1 1 1 1 1 1 0 0 1 1 1 0 1 2 2
5 5 4 4 6 6 6 6 5 5 5 4 4 5 5 4 3 3 2 2 2 2 3 3 3 2 2 2 2 1 2 1 1 1 2 1 1 0 1 1 0 1 1
5 5 4 3 4 4 5 5 5 5 4 4 4 4 4 4 3 3 3 3 3 2 2 2 3 3 2 2 2 1 1 1 1 1 0 0 0 0 0 0 1 0 2
5 4 4 3 3 3 4 5 4 4 4 4 3 4 4 4 4 3 3 3 2 2 3 3 3 3 3 3 2 2 2 2 2 2 1 2 1 1 1 1 1 1 1
5 4 4 4 4 3 2 3 4 4 3 3 3 2 3 3 3 2 2 1 2 2 2 3 2 3 3 3 3 3 3 3 2 2 2 3 2 2 2 1 2 2 2
4 4 4 4 3 3 2 2 3 3 3 3 3 2 2 3 2 2 2 2 2 2 2 3 3 3 3 3 3 4 4 3 3 3 2 3 3 3 2 3 3 2 2
3 4 4 4 3 3 2 2 2 2 3 3 3 3 3 3 2 2 2 2 2 2 3 2 2 2 2 2 3 3 3 3 3 3 2 3 2 3 3 3 3 2 2
2 3 3 3 3 3 2 2 2 2 2 3 3 3 3 3 2 2 3 2 2 3 2 2 2 2 2 2 2 2 2 2 3 2 2 2 2 1 1 2 2 2 2
0 1 2 2 2 2 2 2 2 2 2 3 3 2 2 1 2 2 2 2 2 2 2 2 2 2 2 1 1 1 2 2 3 3 3 3 3 3 3 3 2 2 3
0 0 2 2 2 2 2 2 2 1 1 2 2 2 2 2 2 2 1 1 2 2 2 2 2 2 1 2 1 2 3 3 3 3 3 3 3 3 2 3 4 3 4
0 1 1 2 1 2 2 1 2 2 2 2 2 2 2 2 1 1 1 2 2 2 2 2 2 1 1 1 1 3 3 3 4 4 4 4 4 3 2 3 3 3 3
1 1 1 1 2 2 1 2 2 2 2 2 2 2 2 2 1 2 2 2 2 2 3 2 2 2 2 2 2 2 3 3 4 4 2 2 2 3 2 2 3 2 2
2 2 2 1 2 2 2 2 2 2 2 2 1 1 2 2 2 2 2 2 2 2 2 2 2 3 2 3 3 2 2 4 3 3 2 2 2 2 2 2 2 3 2
1 1 2 1 0 1 2 2 2 2 1 0 0 1 1 2 2 1 1 1 1 2 2 2 2 2 2 2 3 3 2 3 3 2 2 2 3 3 2 2 2 3 3
0 1 1 1 0 0 1 2 2 1 1 1 1 1 1 2 2 2 1 1 1 2 2 2 2 2 2 2 3 4 4 4 3 2 2 2 3 3 3 3 3 4 3
1 1 1 2 1 1 1 1 1 1 1 1 1 1 1 1 1 1 1 1 1 2 2 2 2 2 1 2 3 4 5 5 3 2 1 2 3 2 3 3 4 2 1
1 1 2 2 2 1 1 1 1 2 2 1 1 1 1 0 0 0 1 1 1 2 2 2 2 2 1 1 1 1 2 3 2 2 1 1 2 2 2 2 2 2 2
1 2 2 2 2 2 1 1 1 2 1 2 1 1 0 0 0 1 1 1 1 2 2 2 2 1 1 2 1 1 2 1 1 1 1 0 1 1 2 1 1 1 1
1 1 2 2 2 1 1 1 1 2 2 2 2 1 1 1 1 0 1 3 2 3 3 3 2 1 1 1 1 1 1 1 1 1 2 2 2 2 2 2 2 2 2
Wind_Direction
161 151 149 147 146 144 147 149 148 146 136 131 123 114 109 96 90 95 88 64 57 68 64 57 55 67 69 55 62 84 61 26 16 29 4 350 10 58 73 65 55 59 80
157 152 154 155 159 160 161 149 148 153 145 142 141 144 141 139 130 106 99 97 80 79 77 77 72 76 67 50 47 56 57 359 3 22 21 3 1 350 45 78 86 62 70
161 160 165 160 157 160 163 160 158 156 147 141 136 139 122 113 108 116 114 103 109 108 110 94 106 126 121 114 96 89 73 4 334 26 53 56 320 311 337 16 94 68 42
163 163 162 159 161 160 161 161 154 152 147 147 148 149 144 149 152 146 143 157 136 94 107 97 119 142 114 112 179 104 102 69 319 327 343 25 124 111 325 325 12 77 75
158 158 158 156 160 157 156 156 148 149 147 148 153 158 151 157 155 153 152 175 182 147 161 214 129 137 137 158 114 63 15 226 246 306 322 330 336 285 162 285 321 340 356
146 148 148 146 150 147 149 149 148 147 151 153 155 159 157 159 153 157 161 176 157 174 192 192 169 170 165 175 174 185 244 315 331 313 302 309 334 306 342 299 303 287 281
136 148 152 149 150 149 151 156 153 152 158 158 160 164 167 174 178 173 174 178 173 186 212 199 188 182 168 170 157 193 201 230 229 269 300 353 320 319 352 25 336 312 292
119 127 149 156 156 157 156 156 159 159 164 171 169 168 173 180 184 177 166 188 190 190 198 199 200 184 177 189 160 187 221 229 204 253 219 217 306 349 10 70 23 337 331
126 125 124 148 154 159 160 161 165 164 168 177 181 174 179 182 189 190 179 193 216 205 192 197 193 193 186 193 186 194 220 231 223 230 227 190 194 149 348 15 122 147 304
130 123 121 132 140 145 153 159 167 172 177 177 191 184 185 185 188 194 196 196 214 213 183 195 196 189 187 193 202 198 228 219 223 216 230 223 208 181 126 39 306 159 181
121 119 118 115 106 128 152 159 165 174 178 187 198 190 183 191 196 199 200 198 211 208 196 206 206 197 196 200 201 203 201 223 228 218 208 231 224 209 223 212 251 270 195
119 123 119 120 122 125 143 164 166 170 171 186 193 189 183 193 197 194 190 196 231 227 209 208 208 210 209 205 204 207 206 217 226 236 226 223 222 222 226 217 224 239 235
125 128 129 126 136 144 153 150 161 169 164 172 176 182 192 196 205 198 201 227 238 257 247 225 212 219 218 213 213 211 202 203 216 229 243 239 217 222 217 219 223 234 248
129 127 131 134 144 155 158 150 150 155 158 159 176 194 200 198 201 202 210 225 231 239 254 247 220 225 230 226 229 227 213 208 215 220 245 256 226 224 223 228 227 233 240
108 134 145 153 159 162 165 152 151 157 154 160 185 204 207 190 196 209 216 214 226 233 231 237 228 230 234 241 237 241 232 223 233 235 238 257 255 240 249 251 231 233 232
38 158 153 158 168 171 170 161 165 173 164 169 179 184 190 197 206 208 219 222 225 238 235 238 229 232 262 271 267 271 244 231 232 242 239 240 241 252 250 257 253 231 226
41 264 181 187 188 184 185 183 169 167 177 178 173 170 186 200 208 214 208 215 233 248 244 249 241 229 230 249 257 280 263 249 240 243 242 255 251 243 232 245 243 243 243
90 303 213 183 182 184 172 153 160 174 186 188 183 178 182 182 181 201 215 219 234 240 250 251 238 222 263 273 267 265 258 257 247 240 231 232 232 238 228 228 233 234 247
4 334 298 184 191 185 167 158 178 193 195 200 201 186 179 183 196 217 228 239 240 239 232 237 221 213 233 240 243 244 240 246 252 248 248 260 248 246 231 230 231 235 266
9 351 330 231 192 177 168 180 207 206 204 203 204 185 187 191 205 220 224 229 234 245 238 232 228 218 225 228 222 228 243 246 248 241 224 233 251 248 227 228 223 224 247
5 355 338 327 84 148 168 194 213 213 203 168 223 209 204 204 210 222 234 232 235 247 256 250 245 227 217 203 211 224 252 271 259 234 223 222 226 242 255 254 232 246 248
331 333 323 317 359 295 222 215 217 188 127 146 219 234 218 221 214 199 233 240 243 246 253 261 262 245 223 213 227 228 245 277 276 251 220 206 207 234 257 260 265 273 281
271 275 275 264 241 224 241 240 209 154 139 149 197 223 214 220 201 193 222 255 257 253 260 260 263 264 243 220 225 231 246 267 277 288 236 212 201 227 249 254 261 269 259
247 258 246 218 221 217 208 229 176 151 152 180 197 206 199 213 283 319 246 243 263 270 269 268 269 264 238 231 233 245 261 277 291 315 312 255 229 245 251 255 249 240 240
228 236 246 214 203 193 197 193 187 162 192 203 193 190 189 210 279 345 337 313 280 251 259 268 274 272 278 286 265 223 247 248 244 277 280 263 244 237 248 249 241 227 242
231 242 242 222 223 206 188 169 173 188 208 207 197 187 187 180 182 180 336 342 303 303 292 262 248 270 247 257 226 231 225 240 213 214 230 234 227 227 229 228 238 240 242
Height
1511 1513 1515 1517 1519 1521 1522 1523 1525 1526 1527 1528 1529 1529 1530 1531 1532 1532 1532 1533 1533 1534 1534 1534 1535 1535 1535 1536 1536 1536 1536 1536 1536 1536 1536 1536 1536 1536 1536 1537 1536 1536 1536
1508 1511 1513 1515 1517 1519 1520 1522 1523 1525 1525 1526 1528 1529 1529 1530 1531 1531 1532 1532 1533 1533 1533 1534 1534 1535 1535 1535 1536 1536 1536 1536 1536 1536 1536 1536 1537 1536 1536 1537 1536 1536 1536
1506 1508 1511 1513 1515 1517 1519 1520 1522 1523 1524 1525 1527 1528 1529 1530 1530 1531 1531 1532 1532 1533 1533 1534 1534 1534 1535 1535 1535 1535 1535 1536 1536 1536 1537 1537 1537 1536 1536 1537 1536 1536 1536
1503 1506 1508 1510 1512 1514 1517 1519 1520 1522 1523 1524 1525 1526 1527 1528 1529 1530 1530 1531 1531 1532 1533 1533 1533 1534 1534 1534 1534 1534 1535 1535 1536 1536 1536 1537 1537 1537 1536 1537 1536 1536 1535
1501 1504 1506 1508 1510 1512 1514 1517 1518 1520 1521 1522 1524 1525 1526 1527 1528 1529 1529 1530 1531 1531 1532 1532 1533 1533 1533 1533 1533 1533 1534 1534 1535 1535 1535 1536 1536 1536 1536 1536 1536 1535 1535
1499 1502 1504 1507 1509 1510 1512 1514 1516 1518 1519 1520 1522 1523 1525 1526 1527 1527 1528 1529 1529 1530 1530 1531 1531 1532 1532 1532 1532 1532 1532 1533 1533 1534 1534 1535 1535 1535 1535 1535 1534 1534 1534
1498 1501 1503 1504 1507 1509 1510 1512 1514 1516 1517 1519 1520 1522 1523 1524 1525 1526 1526 1527 1528 1528 1529 1529 1530 1530 1531 1531 1531 1531 1531 1531 1531 1532 1532 1533 1533 1534 1534 1534 1534 1533 1532
1497 1499 1501 1503 1505 1507 1508 1510 1512 1514 1515 1517 1518 1520 1521 1522 1524 1524 1525 1526 1526 1527 1527 1528 1528 1529 1529 1529 1529 1529 1529 1530 1530 1530 1531 1531 1531 1532 1532 1532 1533 1532 1531
1497 1499 1500 1502 1504 1505 1507 1508 1510 1512 1514 1515 1517 1518 1519 1520 1521 1522 1523 1524 1525 1525 1525 1526 1526 1527 1527 1527 1528 1528 1528 1528 1528 1528 1529 1529 1529 1530 1530 1531 1531 1531 1530
1497 1498 1499 1501 1502 1504 1505 1507 1508 1510 1511 1513 1514 1516 1517 1518 1519 1520 1521 1522 1522 1523 1523 1524 1524 1524 1525 1525 1525 1525 1526 1526 1526 1526 1527 1527 1527 1528 1528 1529 1529 1529 1529
1496 1498 1499 1500 1501 1503 1504 1505 1506 1508 1510 1511 1512 1513 1514 1515 1516 1518 1518 1519 1520 1521 1521 1521 1522 1522 1522 1523 1523 1523 1524 1524 1524 1524 1525 1525 1525 1525 1526 1526 1526 1526 1527
1495 1497 1498 1499 1500 1501 1502 1503 1505 1506 1507 1508 1510 1511 1512 1513 1514 1515 1515 1516 1517 1518 1518 1519 1519 1519 1520 1520 1520 1521 1521 1521 1521 1522 1522 1523 1523 1523 1523 1523 1523 1524 1524
1495 1496 1497 1498 1499 1500 1501 1502 1503 1504 1505 1506 1507 1508 1509 1510 1511 1512 1512 1513 1514 1515 1515 1516 1516 1516 1517 1517 1518 1518 1518 1518 1519 1519 1519 1520 1520 1520 1520 1520 1521 1521 1521
1494 1495 1496 1497 1498 1499 1499 1500 1501 1502 1503 1504 1505 1505 1506 1507 1508 1509 1509 1510 1511 1512 1512 1512 1513 1513 1514 1514 1515 1515 1515 1515 1515 1516 1516 1517 1517 1517 1517 1517 1518 1518 1518
1493 1493 1494 1495 1496 1497 1498 1499 1499 1500 1501 1501 1502 1503 1504 1504 1505 1506 1506 1507 1508 1508 1509 1509 1509 1510 1510 1511 1511 1512 1512 1512 1512 1512 1513 1513 1514 1514 1514 1514 1514 1515 1515
1492 1492 1493 1494 1495 1495 1496 1497 1497 1498 1498 1499 1499 1500 1501 1502 1502 1503 1503 1504 1504 1505 1505 1506 1506 1506 1507 1507 1507 1508 1508 1508 1508 1509 1509 1509 1509 1510 1510 1511 1511 1511 1511
1491 1491 1492 1492 1493 1494 1494 1495 1496 1496 1496 1497 1497 1497 1498 1499 1499 1500 1500 1500 1501 1501 1501 1502 1502 1502 1503 1504 1504 1504 1504 1504 1504 1505 1505 1505 1505 1506 1506 1506 1507 1507 1507
1489 1489 1490 1490 1491 1492 1492 1493 1493 1494 1494 1494 1495 1495 1495 1496 1496 1496 1496 1497 1497 1498 1498 1498 1499 1499 1499 1499 1499 1500 1500 1500 1500 1501 1501 1501 1501 1501 1502 1502 1502 1503 1503
1487 1487 1488 1488 1488 1489 1490 1490 1491 1491 1491 1492 1492 1492 1492 1492 1493 1493 1493 1494 1494 1494 1495 1495 1495 1495 1495 1495 1495 1495 1495 1495 1496 1496 1497 1497 1497 1498 1498 1498 1498 1498 1499
1485 1485 1486 1486 1486 1486 1487 1488 1488 1488 1488 1489 1489 1489 1490 1490 1490 1490 1491 1491 1491 1491 1491 1491 1491 1491 1491 1491 1491 1491 1491 1491 1491 1492 1492 1493 1493 1493 1494 1494 1494 1494 1494
1483 1483 1483 1483 1483 1484 1484 1485 1485 1485 1485 1486 1486 1487 1487 1487 1487 1487 1488 1488 1488 1488 1488 1488 1488 1488 1487 1487 1487 1487 1487 1487 1487 1487 1487 1488 1489 1489 1489 1489 1489 1489 1490
1480 1480 1480 1480 1481 1481 1482 1482 1482 1483 1483 1483 1483 1483 1484 1484 1485 1485 1485 1485 1485 1485 1485 1485 1485 1484 1484 1484 1484 1484 1484 1484 1483 1483 1483 1484 1484 1485 1485 1485 1485 1485 1485
1478 1478 1478 1478 1478 1479 1479 1479 1479 1480 1480 1480 1480 1481 1481 1481 1481 1482 1481 1482 1482 1482 1481 1481 1481 1481 1481 1480 1480 1480 1480 1480 1480 1479 1479 1479 1480 1480 1480 1480 1480 1480 1480
1475 1475 1475 1475 1475 1475 1476 1476 1476 1477 1477 1477 1477 1478 1478 1478 1479 1479 1479 1479 1479 1478 1478 1478 1478 1477 1477 1476 1476 1476 1476 1476 1476 1475 1475 1475 1475 1475 1475 1475 1475 1475 1475
1472 1472 1473 1472 1472 1473 1473 1474 1474 1474 1474 1474 1475 1475 1475 1475 1475 1476 1476 1476 1476 1476 1475 1474 1474 1474 1473 1473 1473 1472 1472 1471 1471 1471 1471 1471 1470 1470 1470 1470 1470 1471 1471
1470 1470 1470 1470 1470 1470 1470 1471 1471 1471 1471 1471 1471 1472 1472 1472 1472 1472 1472 1472 1472 1472 1472 1471 1471 1470 1470 1469 1469 1468 1468 1468 1468 1467 1466 1466 1466 1466 1466 1466 1466 1466 1467